Weather History for LFBP - October, 2012

Change the Weather History Date:

Thursday, October 18, 2012

  Actual Average Record
Temperature  
Mean Temperature 61 °F -  
Max Temperature 71 °F 59 °F - (-1)
Min Temperature 51 °F 44 °F - (-1)
Degree Days  
Heating Degree Days 4    
Growing Degree Days 11 (Base 50)    
Moisture  
Dew Point 55 °F    
Average Humidity 87    
Maximum Humidity 100    
Minimum Humidity 68    
Precipitation  
Precipitation 0.00 in - - ()
Sea Level Pressure  
Sea Level Pressure 29.61 in    
Wind  
Wind Speed 4 mph ()    
Max Wind Speed 15 mph    
Max Gust Speed -    
Visibility 6.1 miles    
Events      
Averages and records for this station are not official NWS values.
T = Trace of Precipitation, MM = Missing Value Source: Averaged Metar Reports

Daily Weather History Graph

Daily Weather History Graph

Search for Another Location

Airport or City:

Trip Planner

Search our weather history database for the weather conditions in past years. The results will help you decide how hot, cold, wet, or windy it might be!

Date:

Astronomy

Oct. 18, 2012 Rise Set
Actual Time 8:19 AM CEST 7:13 PM CEST
Civil Twilight 7:50 AM CEST 7:42 PM CEST
Nautical Twilight 7:17 AM CEST 8:15 PM CEST
Astronomical Twilight 6:44 AM CEST 8:48 PM CEST
Moon 11:51 AM CEST (10/18) 9:26 PM CEST (10/18)
Length of Visible Light 11h 51m
Length of Day
10h 53m
Waxing Crescent, 12% of the Moon is Illuminated
Oct 18
Waxing Crescent
Oct 22
First Quarter
Oct 29
Full
Nov 7
Last Quarter
Nov 13
New

Hourly Weather History & Observations

Time (CEST) Temp. Dew Point Humidity Pressure Visibility Wind Dir Wind Speed Gust Speed Precip Events Conditions
12:00 AM 53.6 °F 53.6 °F 100% 29.62 in 6.2 mi Variable 1.2 mph - N/A   Unknown
12:30 AM 55.4 °F 53.6 °F 94% 29.62 in 6.2 mi Variable 2.3 mph - N/A   Unknown
1:00 AM 53.6 °F 51.8 °F 94% 29.62 in 6.2 mi Variable 3.5 mph - N/A   Unknown
1:30 AM 55.4 °F 53.6 °F 94% 29.62 in 6.2 mi Variable 2.3 mph - N/A   Unknown
2:00 AM 55.4 °F 53.6 °F 94% 29.62 in 6.2 mi Variable 2.3 mph - N/A   Unknown
2:30 AM 53.6 °F 51.8 °F 94% 29.62 in 6.2 mi Variable 2.3 mph - N/A   Unknown
3:00 AM 53.6 °F 51.8 °F 94% 29.65 in 6.2 mi Variable 2.3 mph - N/A   Unknown
3:30 AM 53.6 °F 51.8 °F 94% 29.65 in 6.2 mi Variable 2.3 mph - N/A   Unknown
4:00 AM 53.6 °F 51.8 °F 94% 29.62 in 6.2 mi SSE 4.6 mph - N/A   Unknown
4:30 AM 53.6 °F 51.8 °F 94% 29.65 in 6.2 mi Variable 1.2 mph - N/A   Unknown
5:00 AM 53.6 °F 51.8 °F 94% 29.62 in 6.2 mi Variable 2.3 mph - N/A   Unknown
5:30 AM 53.6 °F 51.8 °F 94% 29.62 in 6.2 mi Variable 3.5 mph - N/A   Unknown
6:00 AM 53.6 °F 51.8 °F 94% 29.62 in - ESE 3.5 mph - N/A   Clear
6:30 AM 53.6 °F 51.8 °F 94% 29.59 in - Variable 3.5 mph - N/A   Clear
7:00 AM 53.6 °F 51.8 °F 94% 29.59 in - WSW 5.8 mph - N/A   Clear
7:30 AM 53.6 °F 50.0 °F 88% 29.59 in - West 5.8 mph - N/A   Clear
8:00 AM 51.8 °F 51.8 °F 100% 29.62 in - North 3.5 mph - N/A   Clear
8:30 AM 53.6 °F 51.8 °F 94% 29.62 in - NNW 6.9 mph - N/A   Clear
9:00 AM 51.8 °F 51.8 °F 100% 29.62 in - Variable 2.3 mph - N/A   Clear
9:30 AM 55.4 °F 53.6 °F 94% 29.65 in - Variable 3.5 mph - N/A   Clear
10:00 AM 57.2 °F 55.4 °F 94% 29.65 in - WNW 4.6 mph - N/A   Clear
10:30 AM 60.8 °F 55.4 °F 82% 29.65 in - Variable 2.3 mph - N/A   Clear
11:00 AM 60.8 °F 55.4 °F 82% 29.65 in - Variable 3.5 mph - N/A   Clear
11:30 AM 60.8 °F 55.4 °F 82% 29.65 in - Variable 2.3 mph - N/A   Clear
12:00 PM 60.8 °F 55.4 °F 82% 29.65 in - WSW 3.5 mph - N/A   Clear
12:30 PM 62.6 °F 57.2 °F 82% 29.65 in - WNW 4.6 mph - N/A   Clear
1:00 PM 64.4 °F 57.2 °F 77% 29.65 in - Variable 3.5 mph - N/A   Clear
1:30 PM 68.0 °F 57.2 °F 68% 29.65 in 6.2 mi Variable 2.3 mph - N/A   Mostly Cloudy
2:00 PM 68.0 °F 57.2 °F 68% 29.59 in 6.2 mi Variable 2.3 mph - N/A   Mostly Cloudy
2:30 PM 71.6 °F 60.8 °F 69% 29.59 in 6.2 mi NW 5.8 mph - N/A   Mostly Cloudy
3:00 PM 71.6 °F 60.8 °F 69% 29.56 in 6.2 mi Variable 8.1 mph - N/A   Mostly Cloudy
3:30 PM 71.6 °F 60.8 °F 69% 29.56 in 6.2 mi NW 8.1 mph - N/A   Mostly Cloudy
4:00 PM 68.0 °F 60.8 °F 78% 29.56 in 6.2 mi NW 15.0 mph - N/A   Mostly Cloudy
4:30 PM 68.0 °F 59.0 °F 73% 29.56 in - NNW 13.8 mph - N/A   Clear
5:13 PM 68.0 °F 59.0 °F 73% 29.56 in - NW 9.2 mph - N/A   Clear
5:30 PM 68.0 °F 59.0 °F 73% 29.56 in - WNW 9.2 mph - N/A   Clear
6:00 PM 66.2 °F 59.0 °F 78% 29.56 in - WNW 6.9 mph - N/A   Clear
6:30 PM 64.4 °F 57.2 °F 77% 29.59 in - West 8.1 mph - N/A   Clear
7:00 PM 64.4 °F 57.2 °F 77% 29.59 in - Variable 3.5 mph - N/A   Clear
7:30 PM 62.6 °F 57.2 °F 82% 29.59 in - West 6.9 mph - N/A   Clear
8:00 PM 60.8 °F 57.2 °F 88% 29.59 in - WSW 5.8 mph - N/A   Clear
8:30 PM 60.8 °F 57.2 °F 88% 29.62 in - West 5.8 mph - N/A   Clear
9:00 PM 60.8 °F 57.2 °F 88% 29.59 in 6.2 mi West 5.8 mph - N/A   Mostly Cloudy
9:30 PM 59.0 °F 57.2 °F 94% 29.62 in 6.2 mi Variable 2.3 mph - N/A   Mostly Cloudy
10:00 PM 59.0 °F 57.2 °F 94% 29.62 in 6.2 mi West 4.6 mph - N/A   Mostly Cloudy
10:30 PM 59.0 °F 57.2 °F 94% 29.65 in 6.2 mi West 3.5 mph - N/A   Mostly Cloudy
11:00 PM 59.0 °F 57.2 °F 94% 29.65 in 6.2 mi Variable 3.5 mph - N/A   Mostly Cloudy
11:30 PM 57.2 °F 55.4 °F 94% 29.62 in 5.0 mi Variable 2.3 mph - N/A   Mostly Cloudy